x

Central Caribbean - 210 Nm Sse Of Kingston, Jamaica (42058) Weather Station

11:20 - Mon 29th May 2017 All times are EST. -5 hours from GMT.

  • Wind
    20mph, 25mph gusts
  • Sea Temp 82°f
  • Sea Pressure 1015mb
  • Central Caribbean - 210 Nm Sse Of Kingston, Jamaica
  • Central Caribbean - 210 Nm Sse Of Kingston, Jamaica

More Historic Weather Station data

Upgrade to MSW Pro to gain access to the past 30 days of data for over 8000 Wavebouys and Weather Stations around the globe.

Join Pro

Comparision Forecast

View Surf forecast
   
lun 05/29 11:20  -   -   -  20 25 mph 1015mb 82f
11:10  -   -   -  20 25 mph 1015mb 82f
11:00  -   -   -  20 25 mph 1015mb 82f
10:50 6ft 7s 5s 20 25 mph 1015.1mb 82f
10:40  -   -   -  20 25 mph 1015.1mb 82f
10:30  -   -   -  20 25 mph 1015mb 82f
10:20  -   -   -  20 25 mph 1015mb 82f
10:10  -   -   -  20 25 mph 1015.1mb 82f
10:00  -   -   -  18 22 mph 1015.1mb 82f
9:50 6ft 7s 5s 20 25 mph 1015.3mb 82f
9:40 6ft  -  5s 20 25 mph 1015.3mb 82f
9:30  -   -   -  20 25 mph 1015.1mb 82f
9:20  -   -   -  20 25 mph 1015.1mb 82f
9:10  -   -   -  20 25 mph 1015mb 82f
9:00  -   -   -  20 25 mph 1015mb 82f
8:50 5.5ft 7s 5s 20 25 mph 1015mb 82f
8:40 5.5ft  -  5s 20 25 mph 1015mb 82f
8:30  -   -   -  20 25 mph 1014.9mb 82f
8:20  -   -   -  20 25 mph 1014.8mb 82f
8:10  -   -   -  20 25 mph 1014.8mb 82f
8:00  -   -   -  20 25 mph 1014.6mb 82f
7:50 6ft 7s 5s 22 25 mph 1014.5mb 82f
7:40 6ft  -  5s 20 25 mph 1014.5mb 82f
7:30  -   -   -  22 27 mph 1014.3mb 82f
7:20  -   -   -  22 27 mph 1014mb 82f
7:10  -   -   -  20 25 mph 1014.1mb 82f
7:00  -   -   -  20 25 mph 1014.3mb 82f
6:50 6ft 7s 5s 20 25 mph 1014.3mb 82f
6:40 6ft  -  5s 20 25 mph 1014mb 82f
6:30  -   -   -  20 25 mph 1014mb 82f
6:20  -   -   -  20 27 mph 1014mb 82f
6:10  -   -   -  20 25 mph 1013.9mb 82f
6:00  -   -   -  22 27 mph 1013.8mb 82f
5:50 6ft 7s 5s 20 25 mph 1013.6mb 82f
5:40  -   -   -  20 25 mph 1013.5mb 82f
5:30  -   -   -  20 27 mph 1013.4mb 82f
5:20  -   -   -  20 25 mph 1013.4mb 82f
5:10  -   -   -  22 27 mph 1013.3mb 82f
5:00  -   -   -  20 25 mph 1013.3mb 82f
4:50 5.5ft 7s 5s 20 27 mph 1013.3mb 82f
4:40 5.5ft  -  5s 22 27 mph 1013.1mb 82f
4:30  -   -   -  20 25 mph 1013mb 82f
4:20  -   -   -  20 25 mph 1013mb 82f
4:10  -   -   -  20 27 mph 1013mb 82f
4:00  -   -   -  20 25 mph 1012.9mb 82f
3:50 6ft 7s 5s 22 27 mph 1012.9mb 82f
3:40 6ft  -  5s 22 27 mph 1012.9mb 82f
3:30  -   -   -  20 25 mph 1012.9mb 82f
3:20  -   -   -  20 25 mph 1013mb 82f
3:10  -   -   -  20 25 mph 1013mb 82f
3:00  -   -   -  22 27 mph 1013mb 82f
2:50 5.5ft 7s 5s 20 27 mph 1012.9mb 82f
2:40  -   -   -  20 22 mph 1013mb 82f
2:30  -   -   -  20 22 mph 1013mb 82f
2:20  -   -   -  22 27 mph 1013.1mb 82f
2:10  -   -   -  20 25 mph 1013.1mb 82f
2:00  -   -   -  20 25 mph 1013.3mb 82f
1:50 6ft 7s 5s 20 25 mph 1013.4mb 82f
1:40  -   -   -  18 25 mph 1013.4mb 82f
1:30  -   -   -  20 25 mph 1013.5mb 82f
1:20  -   -   -  22 27 mph 1013.5mb 82f
1:10  -   -   -  22 27 mph 1013.6mb 82f
1:00  -   -   -  22 29 mph 1013.8mb 82f
12:50 5ft 7s 5s 22 27 mph 1013.8mb 82f
12:40  -   -   -  20 27 mph 1013.9mb 82f
12:30  -   -   -  20 25 mph 1014mb 82f
12:20  -   -   -  20 25 mph 1014mb 82f
12:10  -   -   -  22 27 mph 1014.1mb 82f
12:00  -   -   -  22 27 mph 1014.4mb 82f
dom 05/28 11:50 5ft 7s 5s 22 27 mph 1014.5mb 82f
11:40 5ft  -  5s 20 25 mph 1014.8mb 82f
11:30  -   -   -  20 25 mph 1014.9mb 82f
11:20  -   -   -  20 25 mph 1014.9mb 82f
11:10  -   -   -  20 25 mph 1014.9mb 82f
11:00  -   -   -  20 25 mph 1015mb 82f
10:50 6ft 6s 5s 20 25 mph 1015mb 82f
10:40  -   -   -  20 27 mph 1014.9mb 82f
10:30  -   -   -  20 27 mph 1014.9mb 82f
10:20  -   -   -  22 25 mph 1014.8mb 82f
10:10  -   -   -  20 27 mph 1014.8mb 82f
10:00  -   -   -  20 25 mph 1014.8mb 82f
9:50 5ft 7s 5s 20 25 mph 1014.8mb 82f
9:40 5ft  -  5s 20 25 mph 1014.6mb 82f
9:30  -   -   -  20 25 mph 1014.5mb 82f
9:20  -   -   -  20 27 mph 1014.4mb 82f
9:10  -   -   -  20 25 mph 1014.1mb 82f
9:00  -   -   -  20 25 mph 1014mb 82f
8:50 5ft 7s 5s 20 27 mph 1014mb 82f
8:40 5ft  -  5s 20 27 mph 1013.8mb 82f
8:30  -   -   -  20 27 mph 1013.6mb 82f
8:20  -   -   -  20 25 mph 1013.5mb 82f
8:10  -   -   -  22 27 mph 1013.4mb 82f
8:00  -   -   -  20 25 mph 1013.1mb 82f
7:50 5ft 6s 5s 20 25 mph 1013.1mb 82f
7:40 5ft  -  5s 20 27 mph 1013mb 82f
7:30  -   -   -  20 25 mph 1013mb 82f
7:20  -   -   -  20 25 mph 1012.9mb 82f
7:10  -   -   -  18 25 mph 1012.9mb 82f
7:00  -   -   -  20 22 mph 1012.8mb 82f
6:50 5ft 7s 5s 20 25 mph 1012.5mb 82f
6:40  -   -   -  20 25 mph 1012.4mb 82f
6:30  -   -   -  20 25 mph 1012.3mb 82f
6:20  -   -   -  20 25 mph 1012.3mb 82f
6:10  -   -   -  20 22 mph 1012.3mb 82f
6:00  -   -   -  20 25 mph - -
5:50 5ft 7s 5s 20 22 mph 1012mb 82f
5:40  -   -   -  18 22 mph 1012mb 83f
5:30  -   -   -  18 22 mph 1012mb 83f
5:20  -   -   -  20 25 mph 1012mb 83f
5:10  -   -   -  20 25 mph 1012mb 83f
5:00  -   -   -  20 25 mph 1012mb 83f
4:50 5.5ft 7s 5s 20 25 mph 1012mb 83f
4:40  -   -   -  20 25 mph 1012mb 83f
4:30  -   -   -  20 25 mph 1012mb 83f
4:20  -   -   -  18 22 mph 1012mb 83f
4:10  -   -   -  18 22 mph 1012mb 83f
4:00  -   -   -  20 25 mph 1012.1mb 83f
3:50 5.5ft 7s 5s 20 25 mph 1012mb 83f
3:40 5.5ft  -  5s 20 25 mph 1012mb 83f
3:30  -   -   -  20 25 mph 1012mb 83f
3:20  -   -   -  20 25 mph 1012.1mb 83f
3:10  -   -   -  20 25 mph 1012.3mb 83f
3:00  -   -   -  20 25 mph 1012.4mb 83f
2:50 5ft 7s 5s 18 25 mph 1012.4mb 83f
2:40  -   -   -  20 22 mph 1012.3mb 83f
2:30  -   -   -  18 25 mph 1012.4mb 83f
2:20  -   -   -  18 22 mph 1012.5mb 83f
2:10  -   -   -  18 22 mph 1012.5mb 83f
2:00  -   -   -  18 22 mph 1012.9mb -
1:50 5ft 7s 5s 18 22 mph 1013mb 83f
1:40  -   -   -  18 22 mph 1013.1mb 83f
1:30  -   -   -  18 22 mph 1013.5mb 83f
1:20  -   -   -  18 20 mph 1013.5mb 83f
1:10  -   -   -  16 22 mph 1013.6mb 83f
1:00  -   -   -  16 20 mph 1013.8mb 83f
12:50 6ft 7s 5s 18 20 mph 1013.8mb 83f
12:40  -   -   -  18 20 mph 1014mb 83f
12:30  -   -   -  18 20 mph 1014mb 83f
12:20  -   -   -  18 22 mph 1014.1mb 83f
12:10  -   -   -  18 22 mph 1014.3mb 83f
12:00  -   -   -  16 20 mph 1014.4mb 83f
11:50 5ft 7s 5s 16 20 mph 1014.5mb 83f
11:40 5ft  -  5s 18 20 mph 1014.4mb 83f
11:30  -   -   -  16 20 mph 1014.5mb 82f
11:20  -   -   -  16 20 mph 1014.5mb 82f
11:10  -   -   -  16 20 mph 1014.8mb 82f
11:00  -   -   -  16 18 mph 1014.9mb 82f
10:50 5ft 6s 5s 16 20 mph 1015mb 82f
10:40 5ft  -  5s 16 20 mph 1015mb 82f
10:30  -   -   -  16 20 mph 1015mb 82f
10:20  -   -   -  16 20 mph 1015mb 82f
10:10  -   -   -  18 20 mph 1015mb 82f
10:00  -   -   -  18 20 mph 1015mb 82f
9:50  -   -   -  18 20 mph 1014.9mb 82f
9:40  -   -   -  18 22 mph 1014.8mb 82f
9:30  -   -   -   -  mph 1014.8mb 82f
9:20  -   -   -  18 22 mph 1014.8mb 82f
9:10  -   -   -  18 20 mph 1014.8mb 82f
9:00  -   -   -  18 22 mph 1014.5mb 82f
8:50 5ft 7s 5s 20 22 mph 1014.5mb 82f
8:40  -   -   -  20 25 mph 1014.5mb 82f
8:30  -   -   -  18 22 mph 1014.6mb 82f
8:20  -   -   -  20 25 mph 1014.5mb 82f
8:10  -   -   -  18 25 mph 1014.5mb 82f
8:00  -   -   -  20 25 mph 1014.3mb 82f
7:50 6ft 7s 5s 20 25 mph 1014.1mb 82f
7:40  -   -   -  20 25 mph 1014.1mb 82f
7:30  -   -   -  20 25 mph 1014.1mb 82f
7:20  -   -   -  20 27 mph 1014.1mb 82f
7:10  -   -   -  22 27 mph 1014.1mb 82f
7:00  -   -   -  22 27 mph 1014mb 82f
6:50 5.5ft 7s 5s 22 27 mph 1014mb 82f
6:40 5.5ft  -  5s 22 27 mph 1013.6mb 82f
6:30  -   -   -  22 27 mph 1013.5mb 82f
6:20  -   -   -  22 27 mph 1013.5mb 82f
6:10  -   -   -  22 27 mph 1013.4mb 82f
6:00  -   -   -  20 25 mph 1013.3mb 82f
5:50 5.5ft 7s 5s 20 25 mph 1013.1mb 82f
5:40  -   -   -  20 25 mph 1013mb 82f
5:30  -   -   -  20 27 mph 1012.9mb 82f
5:20  -   -   -  20 25 mph 1012.8mb -
5:10  -   -   -  22 27 mph 1012.6mb 82f
5:00  -   -   -  22 27 mph 1012.5mb 82f
4:50 5.5ft 7s 5s 20 27 mph 1012.4mb 82f
4:40  -   -   -  20 25 mph 1012.5mb 82f
4:30  -   -   -  22 27 mph 1012.5mb 82f
4:20  -   -   -  20 25 mph 1012.5mb 82f
4:10  -   -   -  20 25 mph 1012.5mb 82f
4:00  -   -   -  20 27 mph 1012.5mb 82f
3:50 5ft 7s 5s 18 25 mph 1012.5mb 82f
3:40 5ft  -  5s 20 25 mph 1012.4mb 82f
3:30  -   -   -  20 25 mph 1012.4mb 82f
3:20  -   -   -  20 25 mph 1012.3mb -
3:10  -   -   -  20 25 mph 1012.3mb 82f
3:00  -   -   -  20 25 mph 1012.3mb 82f
2:50 5ft 7s 5s 20 25 mph 1012.3mb 82f
2:40  -   -   -  20 25 mph 1012.3mb 82f
2:30  -   -   -  20 27 mph 1012.1mb 82f
2:20  -   -   -  20 25 mph 1012.3mb 82f
2:10  -   -   -  20 25 mph 1012.3mb 82f
2:00  -   -   -  20 25 mph 1012.3mb 82f
1:50 5ft 7s 5s 18 25 mph 1012.5mb 82f
1:40  -   -   -  20 25 mph 1012.8mb 82f
1:30  -   -   -  22 27 mph 1012.9mb 82f
1:20  -   -   -  20 25 mph 1013mb 82f
1:10  -   -   -  20 25 mph 1013mb 82f
1:00  -   -   -  20 25 mph 1013mb 82f
12:50 5ft 7s 5s 20 25 mph 1013.3mb 82f
12:40 5ft  -  5s 20 22 mph 1013.4mb 82f
12:30  -   -   -  20 25 mph 1013.6mb 82f
12:20  -   -   -  20 25 mph 1013.6mb 82f
12:10  -   -   -  20 25 mph 1013.9mb 82f
12:00  -   -   -  20 25 mph 1014mb 82f
sáb 05/27 11:50 4.5ft 6s 5s 20 25 mph 1014.1mb 82f
11:40 4.5ft  -  5s 18 22 mph 1014.3mb 82f
11:30  -   -   -  20 22 mph 1014.3mb 82f
11:20  -   -   -  20 25 mph 1014.4mb 82f
11:10  -   -   -  20 22 mph 1014.5mb 82f
11:00  -   -   -  20 25 mph 1014.6mb 82f
10:50 5ft 7s 5s 20 25 mph 1014.5mb 82f
10:40  -   -   -  20 27 mph 1014.6mb 82f
10:30  -   -   -  20 25 mph 1014.8mb 82f
10:20  -   -   -  20 27 mph 1014.9mb 82f
10:10  -   -   -  20 25 mph 1014.9mb 82f
10:00  -   -   -  20 25 mph 1014.9mb -
9:50 5ft 7s 5s 20 25 mph 1014.9mb 82f
9:40  -   -   -  18 22 mph 1014.8mb 82f
9:30  -   -   -  18 22 mph 1014.8mb 82f
9:20  -   -   -  18 22 mph 1014.8mb 82f
9:10  -   -   -  18 22 mph 1014.6mb 83f
9:00  -   -   -  16 20 mph 1014.5mb -
8:50 4.5ft 6s 5s 18 22 mph 1014.5mb 83f
8:40  -   -   -  18 22 mph 1014.4mb 83f
8:30  -   -   -  18 22 mph 1014.4mb 83f
8:20  -   -   -  18 20 mph 1014.1mb 83f
8:10  -   -   -  18 20 mph 1014mb 83f
8:00  -   -   -  18 20 mph 1014mb 83f
7:50 5ft 7s 5s 18 22 mph 1013.9mb 83f
7:40  -   -   -  18 22 mph 1013.8mb 83f
7:30  -   -   -  18 22 mph 1013.6mb 83f
7:20  -   -   -  18 20 mph 1013.4mb 83f
7:10  -   -   -  18 22 mph 1013.4mb 83f
7:00  -   -   -  18 22 mph 1013.1mb 83f
6:50 4.5ft 7s 5s 18 22 mph 1013mb 83f
6:40 4.5ft  -  5s 18 22 mph 1013mb 83f
6:30  -   -   -  18 20 mph 1013mb 83f
6:20  -   -   -  16 20 mph 1013mb 83f
6:10  -   -   -  16 20 mph 1013mb 83f
6:00  -   -   -  16 20 mph 1013mb 83f
5:50 5ft 7s 5s 16 20 mph 1013mb 83f
5:40  -   -   -  16 18 mph 1012.9mb 83f
5:30  -   -   -  16 18 mph 1013mb 83f
5:20  -   -   -  16 18 mph 1013mb 83f
5:10  -   -   -  16 18 mph 1013mb 83f
5:00  -   -   -  16 18 mph 1013mb 83f
4:50 5ft 7s 5s 16 18 mph 1013mb 83f
4:40  -   -   -  16 18 mph 1013mb 83f
4:30  -   -   -  16 18 mph 1013.1mb 83f
4:20  -   -   -  13 18 mph 1013.1mb 83f
4:10  -   -   -  16 18 mph 1013.3mb 83f
4:00  -   -   -  13 18 mph 1013.4mb 83f
3:50 5ft 7s 5s 13 16 mph 1013.5mb 83f
3:40 5ft  -  5s 13 16 mph 1013.5mb 83f
3:30  -   -   -  13 16 mph 1013.5mb 83f
3:20  -   -   -  13 18 mph 1013.6mb 83f
3:10  -   -   -  16 18 mph 1013.8mb 83f
3:00  -   -   -  16 18 mph 1013.8mb 83f
2:50 5ft 7s 5s 16 18 mph 1013.8mb 83f
2:40 5ft  -  5s 16 18 mph 1013.9mb 83f
2:30  -   -   -  13 18 mph 1014mb 83f
2:20  -   -   -  16 18 mph 1014mb 83f
2:10  -   -   -  16 18 mph 1014mb 83f
2:00  -   -   -  13 18 mph 1014.1mb 83f
1:50 5ft 7s 5s 13 18 mph 1014.3mb 83f
1:40 5ft  -  5s 16 18 mph 1014.4mb 83f
1:30  -   -   -  13 18 mph 1014.5mb 83f
1:20  -   -   -  16 20 mph 1014.8mb 83f
1:10  -   -   -  13 18 mph 1014.9mb 83f
1:00  -   -   -  16 18 mph 1015mb 83f
12:50 5.5ft 7s 5s 16 20 mph 1015mb 83f
12:40 5.5ft  -  5s 16 20 mph 1015mb 83f
12:30  -   -   -  16 20 mph 1015.1mb 83f
12:20  -   -   -  16 20 mph 1015.3mb 83f
12:10  -   -   -  16 20 mph 1015.4mb 83f
12:00  -   -   -  16 18 mph 1015.4mb 83f
11:50 6ft 7s 6s 16 18 mph 1015.4mb 83f
11:40  -   -   -  16 20 mph 1015.5mb 83f
11:30  -   -   -  16 20 mph 1015.5mb 83f
11:20  -   -   -  16 20 mph 1015.5mb 83f
11:10  -   -   -  16 20 mph 1015.6mb 82f
11:00  -   -   -  16 18 mph 1015.6mb 83f
10:50 5.5ft 8s 5s 16 20 mph 1015.8mb 82f
10:40  -   -   -  16 20 mph 1015.8mb 82f
10:30  -   -   -  16 20 mph 1015.8mb 82f
10:20  -   -   -  16 20 mph 1015.8mb 82f
10:10  -   -   -  16 20 mph 1015.9mb 82f
10:00  -   -   -  16 20 mph 1016mb 82f
9:50 6ft 7s 5s 16 20 mph 1015.9mb 82f
9:40  -   -   -  16 20 mph 1015.9mb 82f
9:30  -   -   -  18 22 mph 1015.8mb 82f
9:20  -   -   -  18 22 mph 1015.9mb 82f
9:10  -   -   -  18 22 mph 1015.8mb 82f
9:00  -   -   -  18 20 mph 1015.6mb 82f
8:50 6ft 8s 5s 18 22 mph 1015.6mb 82f
8:40  -   -   -  20 22 mph 1015.4mb 82f
8:30  -   -   -  20 22 mph 1015.4mb 82f
8:20  -   -   -  18 22 mph 1015.4mb -
8:10  -   -   -  18 22 mph 1015.4mb 82f
8:00  -   -   -  18 20 mph 1015.4mb -
7:50 6ft 7s 5s 18 22 mph 1015.4mb 82f
7:40 6ft  -  5s 18 22 mph 1015.4mb 82f
7:30  -   -   -  18 22 mph 1015.3mb 82f
7:20  -   -   -  20 22 mph 1015.1mb 82f
7:10  -   -   -  20 25 mph 1015mb 82f
7:00  -   -   -  18 22 mph 1015mb 82f
6:50 6ft 7s 5s 18 22 mph 1014.9mb 82f
6:40 6ft  -  5s 20 25 mph 1014.8mb 82f
6:30  -   -   -  20 25 mph 1014.5mb 82f
6:20  -   -   -  20 25 mph 1014.5mb 82f
6:10  -   -   -  18 22 mph 1014.1mb 82f
6:00  -   -   -  20 25 mph 1014mb 82f
5:50 6.5ft 8s 5s 20 25 mph 1013.8mb 82f
5:40 6.5ft  -  5s 20 27 mph 1013.6mb 82f
5:30  -   -   -  20 25 mph 1013.5mb 82f
5:20  -   -   -  20 25 mph 1013.1mb 82f
5:10  -   -   -  20 25 mph 1013.1mb 82f
5:00  -   -   -  20 25 mph 1013mb 82f
4:50 6.5ft 8s 6s 20 27 mph 1013mb 82f
4:40  -   -   -  20 25 mph 1013mb 82f
4:30  -   -   -  20 27 mph 1013mb 82f
4:20  -   -   -  22 29 mph 1012.8mb 82f
4:10  -   -   -  20 25 mph 1012.8mb 82f
4:00  -   -   -  20 25 mph 1012.8mb 82f
3:50 6.5ft 8s 5s 20 25 mph 1012.9mb 82f
3:40 6.5ft  -  5s 20 27 mph 1012.8mb 82f
3:30  -   -   -  20 25 mph 1012.8mb 82f
3:20  -   -   -  20 25 mph 1013mb 82f
3:10  -   -   -  22 27 mph 1013.1mb 82f
3:00  -   -   -  20 25 mph 1013.4mb 82f
2:50 7ft 8s 6s 20 25 mph 1013.4mb 82f
2:40  -   -   -  20 25 mph 1013.4mb 82f
2:30  -   -   -  20 25 mph 1013.5mb 82f
2:20  -   -   -  20 25 mph 1013.3mb 82f
2:10  -   -   -  20 27 mph 1013.5mb 82f
2:00  -   -   -  22 29 mph 1013.5mb 82f
1:50 6.5ft 8s 6s 20 27 mph 1013.6mb 82f
1:40  -   -   -  20 25 mph 1013.6mb 82f
1:30  -   -   -  20 25 mph 1013.8mb 82f
1:20  -   -   -  20 25 mph 1014mb 82f
1:10  -   -   -  20 25 mph 1014mb 82f
1:00  -   -   -  20 25 mph 1014mb 82f
12:50 7ft 8s 5s 20 25 mph 1014mb 82f
12:40  -   -   -  20 25 mph 1014.3mb 82f
12:30  -   -   -  20 25 mph 1014.3mb 82f
12:20  -   -   -  20 25 mph 1014.4mb 82f
12:10  -   -   -  20 25 mph 1014.3mb 82f
12:00  -   -   -  20 25 mph 1014.5mb 82f
vie 05/26 11:50 8ft 8s 6s 20 25 mph 1014.5mb 82f
11:40  -   -   -  20 27 mph 1014.8mb 82f
11:30  -   -   -  20 25 mph 1014.8mb -
11:20  -   -   -  20 25 mph 1014.8mb 82f
11:10  -   -   -  20 27 mph 1014.8mb 82f
11:00  -   -   -  20 25 mph 1014.9mb 82f
10:50 8ft 8s 6s 20 25 mph 1015mb 82f
10:40  -   -   -  20 25 mph 1015.1mb 82f
10:30  -   -   -  20 27 mph 1015mb 82f
10:20  -   -   -  20 25 mph 1015mb 82f
10:10  -   -   -  20 27 mph 1015mb 82f
10:00  -   -   -  22 27 mph 1015mb 82f
9:50 8ft 8s 6s 22 27 mph 1015mb 82f
9:40  -   -   -  22 27 mph 1014.8mb 82f
9:30  -   -   -  20 27 mph 1014.6mb 82f
9:20  -   -   -  22 27 mph 1014.5mb 82f
9:10  -   -   -  20 27 mph 1014.5mb 82f
9:00  -   -   -  20 25 mph 1014.4mb 82f
8:50 7.5ft 8s 6s 20 27 mph 1014.4mb 82f
8:40  -   -   -  22 27 mph 1014mb 82f
8:30  -   -   -  22 27 mph 1014mb 82f
8:20  -   -   -  20 27 mph 1013.9mb 82f
8:10  -   -   -  22 27 mph 1014mb 82f
8:00  -   -   -  22 29 mph 1013.5mb 82f
7:50 8ft 8s 6s 22 27 mph 1013.4mb 82f
7:40  -   -   -  22 29 mph 1013.1mb 82f
7:30  -   -   -  25 29 mph 1013mb 82f
7:20  -   -   -  22 29 mph 1013mb 82f
7:10  -   -   -  22 27 mph 1013mb 82f
7:00  -   -   -  22 27 mph 1012.8mb 82f
6:50 8ft 8s 6s 22 27 mph 1012.8mb 82f
6:40  -   -   -  22 27 mph 1012.8mb 82f
6:30  -   -   -  22 29 mph 1012.8mb 82f
6:20  -   -   -  22 27 mph 1012.8mb 82f
6:10  -   -   -  22 29 mph 1012.5mb 82f
6:00  -   -   -  22 29 mph 1012.5mb 82f
5:50 8.5ft 8s 6s 22 29 mph 1012.5mb 83f
5:40  -   -   -  22 29 mph 1012.4mb 82f
5:30  -   -   -  22 27 mph 1012.4mb 82f
5:20  -   -   -  22 27 mph 1012.4mb 82f
5:10  -   -   -  25 29 mph 1012.3mb 83f
5:00  -   -   -  22 27 mph 1012.3mb 83f
4:50 8.5ft 8s 6s 22 27 mph 1012.3mb 83f
4:40  -   -   -  22 27 mph 1012.1mb 82f
4:30  -   -   -  22 29 mph 1012mb 83f
4:20  -   -   -  22 27 mph 1012.3mb 83f
4:10  -   -   -  22 27 mph 1012mb 83f
4:00  -   -   -  22 27 mph 1012.3mb 83f
3:50 8ft 9s 6s 22 29 mph 1012.3mb 83f
3:40  -   -   -  22 29 mph 1012.3mb 83f
3:30  -   -   -  22 27 mph 1012.3mb 83f
3:20  -   -   -  22 27 mph 1012.4mb 82f
3:10  -   -   -  20 27 mph 1012.5mb 83f
3:00  -   -   -  22 29 mph 1012.5mb 83f
2:50 10ft 9s 7s 22 27 mph 1012.5mb 83f
2:40  -   -   -  20 27 mph 1012.8mb 83f
2:30  -   -   -  22 27 mph 1012.9mb 83f
2:20  -   -   -  22 29 mph 1013mb 83f
2:10  -   -   -  22 27 mph 1013.1mb 83f
2:00  -   -   -  22 29 mph 1013.1mb 83f
1:50 10ft 9s 6s 22 29 mph 1013.1mb 83f
1:40 10ft  -  6s 22 27 mph 1013.4mb 83f
1:30  -   -   -  22 27 mph 1013.5mb 83f
1:20  -   -   -  22 29 mph 1013.5mb 82f
1:10  -   -   -  22 29 mph 1013.6mb 82f
1:00  -   -   -  22 29 mph 1013.9mb 82f
12:30  -   -   -  22 31 mph 1014.1mb 82f
12:20  -   -   -  22 27 mph 1014.4mb 82f
12:10  -   -   -  22 27 mph 1014.5mb 82f
12:00  -   -   -  22 29 mph 1014.8mb 82f
11:50 10.5ft 9s 6s 22 29 mph 1014.9mb 82f
11:40  -   -   -  20 27 mph 1015mb 82f
11:30  -   -   -  25 31 mph 1014.9mb 82f
11:20  -   -   -  22 29 mph 1015mb 82f
11:10  -   -   -  22 29 mph 1015mb 82f
11:00  -   -   -  22 29 mph 1015mb 82f
10:50 10ft 9s 6s 22 29 mph 1015.3mb 82f
10:40  -   -   -  22 29 mph 1015.3mb 82f
10:30  -   -   -  25 31 mph 1015.4mb 82f
10:20  -   -   -  27 31 mph 1015mb 82f
10:10  -   -   -  25 34 mph 1015mb 82f
10:00  -   -   -  27 34 mph 1015mb 82f
9:50 9.5ft 8s 6s 27 34 mph 1015mb 82f
9:40  -   -   -  27 31 mph 1014.9mb 82f
9:30  -   -   -  27 34 mph 1014.8mb 82f
9:20  -   -   -  27 34 mph 1014.5mb 82f
9:10  -   -   -  27 34 mph 1014.6mb 82f
9:00  -   -   -  27 34 mph 1014.5mb 82f
8:50 10.5ft 9s 7s 29 36 mph 1014.5mb 82f
8:40  -   -   -  27 34 mph 1014.5mb 82f
8:30  -   -   -  27 34 mph 1014.3mb 82f
8:20  -   -   -  27 34 mph 1014.3mb 82f
8:10  -   -   -  29 34 mph 1014.1mb 82f
8:00  -   -   -  27 31 mph 1014.1mb 82f
7:50 10.5ft 9s 6s 27 34 mph 1014.1mb 82f
7:40 10.5ft  -  6s 27 34 mph 1014mb 82f
7:30  -   -   -  27 34 mph 1014mb 82f
7:20  -   -   -  27 34 mph 1013.9mb 82f
7:10  -   -   -  27 36 mph 1013.6mb 82f
7:00  -   -   -  29 36 mph 1013.5mb 82f
6:50 11ft 9s 7s 29 34 mph 1013.4mb 82f
6:40 11ft  -  7s 29 36 mph 1013.3mb 82f
6:30  -   -   -  27 34 mph 1013.1mb 82f
6:20  -   -   -  27 31 mph 1013.3mb 82f
6:10  -   -   -  27 34 mph 1013.1mb 82f
6:00  -   -   -  27 36 mph 1013mb 82f
5:50 10.5ft 9s 6s 27 34 mph 1012.9mb 82f
5:40 10.5ft  -  6s 27 34 mph 1012.9mb 82f
5:30  -   -   -  27 34 mph 1012.6mb 82f
5:20  -   -   -  27 34 mph 1012.5mb 82f
5:10  -   -   -  27 36 mph 1012.5mb 82f
5:00  -   -   -  27 31 mph 1012.5mb -
4:50 10ft 9s 6s 25 34 mph 1012.5mb 82f
4:40  -   -   -  27 34 mph 1012.5mb 82f
4:30  -   -   -  27 34 mph 1012.4mb 82f
4:20  -   -   -  27 34 mph 1012.3mb 82f
4:10  -   -   -  27 34 mph 1012mb 82f
4:00  -   -   -  27 36 mph 1012mb 82f
3:50 11ft 9s 7s 27 34 mph 1011.8mb 82f
3:40  -   -   -  27 34 mph 1011.9mb 82f
3:30  -   -   -  29 36 mph 1011.6mb 82f
3:20  -   -   -  27 34 mph 1011.5mb 82f
3:10  -   -   -  29 36 mph 1011.5mb 82f
3:00  -   -   -  27 34 mph 1011.5mb 82f
2:50 10ft 9s 6s 27 34 mph 1011.6mb 82f
2:40 10ft  -  6s 27 34 mph 1011.8mb 82f
2:30  -   -   -  29 36 mph 1011.8mb 82f
2:20  -   -   -  27 34 mph 1011.6mb 82f
2:10  -   -   -  27 36 mph 1011.6mb 82f
2:00  -   -   -  27 34 mph 1011.8mb 82f
1:50 11ft 9s 7s 27 31 mph 1011.8mb 82f
1:40  -   -   -  29 36 mph 1011.6mb 82f
1:30  -   -   -  27 34 mph 1011.6mb 82f
1:20  -   -   -  29 36 mph 1011.5mb 82f
1:10  -   -   -  29 38 mph 1011.8mb 82f
1:00  -   -   -  27 34 mph 1011.9mb 82f
12:50 10.5ft 9s 6s 27 36 mph 1012mb 82f
12:40  -   -   -  29 36 mph 1012mb 82f
12:30  -   -   -  29 36 mph 1012mb 82f
12:20  -   -   -  27 36 mph 1012.3mb 82f
12:10  -   -   -  29 36 mph 1012.4mb 82f
12:00  -   -   -  27 34 mph 1012.5mb 82f
jue 05/25 11:50 11ft 9s 6s 29 36 mph 1012.9mb 82f
11:40  -   -   -  27 36 mph 1012.9mb 82f
11:30  -   -   -  29 36 mph 1013mb 82f
11:20  -   -   -  27 34 mph 1013mb 82f
11:10  -   -   -  27 34 mph 1013mb 82f
11:00  -   -   -  27 34 mph 1013mb 82f
10:50 11ft 9s 6s 29 38 mph 1012.9mb 82f
10:40 11ft  -  6s 29 38 mph 1012.9mb 82f
10:30  -   -   -  29 38 mph 1013mb 82f
10:20  -   -   -  29 38 mph 1013mb 82f
10:10  -   -   -  29 36 mph 1013mb 82f
10:00  -   -   -  27 36 mph 1013mb 82f
9:50 11ft 8s 6s 29 36 mph 1013mb 82f
9:40 11ft  -  6s 27 36 mph 1013mb 82f
9:30  -   -   -  27 34 mph 1013mb 82f
9:20  -   -   -  27 34 mph 1012.9mb 82f
9:10  -   -   -  27 36 mph 1012.6mb 82f
9:00  -   -   -  29 38 mph 1012.4mb 82f
8:50 11.5ft 9s 7s 29 38 mph 1012.3mb 82f
8:40  -   -   -  27 36 mph 1012.1mb 83f
8:30  -   -   -  29 38 mph 1012mb 82f
8:20  -   -   -  29 36 mph 1012mb 82f
8:10  -   -   -  29 36 mph 1011.8mb 83f
8:00  -   -   -  29 36 mph 1011.5mb 83f
7:50 11ft 9s 7s 29 38 mph 1011.5mb 83f
7:40  -   -   -  31 36 mph 1011.3mb 82f
7:30  -   -   -  29 38 mph 1011mb 83f
7:20  -   -   -  29 36 mph 1010.9mb 83f
7:10  -   -   -  31 40 mph 1010.8mb 83f
7:00  -   -   -  29 38 mph 1010.8mb 83f
6:50 11.5ft 9s 7s 29 36 mph 1010.5mb 83f
6:40  -   -   -  31 38 mph 1010.5mb 83f
6:30  -   -   -  31 40 mph 1010.4mb 83f
6:20  -   -   -  31 38 mph 1010.3mb 83f
6:10  -   -   -  31 40 mph 1010mb 83f
6:00  -   -   -  29 38 mph 1010mb -
5:50 13ft 9s 7s 29 38 mph 1010mb 83f
5:40  -   -   -  29 38 mph 1009.9mb 83f
5:30  -   -   -  29 36 mph 1010mb 83f
5:20  -   -   -  29 38 mph 1010mb 83f